N2HMM-13 Weather Reports


time (UTC)temp
C
wind
direction
speed
KPH
gust
KPH
rain 1hr
cm
rain 24hr
cm
rain mn
cm
humidity
%
barometer
mb
20260510104505 10 207 9.7 12.9 0.00 1.12 0.00 99 994.7
20260510103004 10 207 9.7 12.9 0.00 1.12 0.00 99 994.2
20260510101504 10 207 9.7 12.9 0.00 1.12 0.00 99 994.2
20260510100006 10 207 9.7 12.9 0.00 1.12 0.00 99 994.1
20260510094504 10 207 9.7 12.9 0.00 1.12 0.00 99 993.9
20260510091505 9 207 9.7 12.9 0.00 1.12 0.00 99 993.8
20260510090004 9 207 9.7 12.9 0.00 1.12 0.00 99 993.9
20260510084506 9 207 9.7 12.9 0.00 1.12 0.00 99 994.0
20260510083005 9 207 9.7 12.9 0.00 1.12 0.00 99 994.3
20260510080005 9 207 9.7 12.9 0.00 1.14 0.00 99 994.7
20260510074505 8 207 9.7 12.9 0.00 1.14 0.00 99 994.8
20260510073005 9 207 9.7 12.9 0.00 1.14 0.00 99 995.2
20260510071504 8 207 9.7 12.9 0.00 1.14 0.00 99 995.0
20260510070005 7 207 9.7 12.9 0.00 1.14 0.00 99 994.8
20260510063005 7 207 9.7 12.9 0.00 1.14 0.00 99 994.6
20260510061505 6 207 9.7 12.9 0.00 1.19 0.00 99 994.7
20260510060007 6 207 9.7 12.9 0.00 1.24 0.00 99 994.7
20260510054505 6 207 9.7 12.9 0.00 1.24 0.00 99 995.0
20260510053005 6 207 9.7 12.9 0.00 1.24 0.00 99 994.7
20260510050005 6 207 9.7 12.9 0.00 1.24 0.00 99 994.5
20260510044506 7 207 9.7 12.9 0.56 1.24 0.00 99 994.4
20260510043005 7 207 9.7 12.9 0.56 1.24 0.00 99 994.5
20260510041505 7 207 9.7 12.9 0.56 1.24 0.00 99 994.6
20260510040005 7 207 9.7 12.9 0.00 0.69 0.00 99 994.5
20260510034505 7 207 9.7 12.9 0.00 0.69 0.56 99 994.2
20260510031505 8 207 9.7 12.9 0.00 0.69 0.56 99 994.0
20260510030006 8 207 9.7 12.9 0.00 0.69 0.56 99 994.1
20260510021505 9 207 9.7 12.9 0.00 0.69 0.56 99 994.0
20260510020005 9 207 9.7 12.9 0.00 0.69 0.56 99 994.0
20260510014505 9 207 9.7 12.9 0.00 0.69 0.56 99 994.2
20260510013005 10 207 9.7 12.9 0.00 0.69 0.56 99 994.1
20260510011505 10 207 9.7 12.9 0.00 0.69 0.56 99 994.0
20260510010005 11 207 9.7 12.9 0.00 0.69 0.56 99 993.7
20260510004505 11 207 9.7 12.9 0.00 0.69 0.56 99 993.5
20260510003005 11 207 9.7 12.9 0.00 0.69 0.56 99 993.3
20260510001505 11 207 9.7 12.9 0.00 0.69 0.56 99 993.3
20260510000006 11 207 9.7 12.9 0.00 0.69 0.56 99 993.1
20260509234506 12 207 9.7 12.9 0.00 0.69 0.56 99 993.2
20260509233005 12 207 9.7 12.9 0.00 0.69 0.56 99 992.9
20260509231505 13 207 9.7 12.9 0.00 0.69 0.56 99 992.8
20260509224505 13 207 9.7 12.9 0.00 0.69 0.56 96 992.9
20260509223005 15 207 9.7 12.9 0.00 0.69 0.56 93 992.8
20260509221506 13 207 9.7 12.9 0.00 0.69 0.56 98 992.6
20260509214505 12 207 9.7 12.9 0.03 0.69 0.58 99 993.1
20260509213006 12 207 9.7 12.9 0.03 0.69 0.58 99 993.0
20260509211505 12 207 9.7 12.9 0.08 0.69 0.61 99 993.1
20260509210005 12 207 9.7 12.9 0.15 0.69 0.61 99 993.2
20260509201505 12 207 9.7 12.9 0.15 0.58 0.51 99 993.7
20260509200005 12 207 9.7 12.9 0.13 0.53 0.46 99 994.0
20260509194505 12 207 9.7 12.9 0.10 0.48 0.43 99 994.1
20260509191505 12 207 9.7 12.9 0.13 0.43 0.36 99 994.4
20260509190006 12 207 9.7 12.9 0.18 0.41 0.33 99 994.4
20260509184505 12 207 9.7 12.9 0.18 0.38 0.33 99 994.5
20260509183005 12 207 9.7 12.9 0.18 0.36 0.33 99 994.8
20260509181505 12 207 9.7 12.9 0.08 0.30 0.23 99 995.0
20260509180005 13 207 9.7 12.9 0.03 0.25 0.15 98 994.6
20260509174505 13 207 9.7 12.9 0.00 0.25 0.15 98 994.6
20260509173005 13 207 9.7 12.9 0.00 0.25 0.15 98 994.4
20260509171505 13 207 9.7 12.9 0.00 0.25 0.15 100 994.3
20260509170005 13 207 9.7 12.9 0.00 0.28 0.15 99 994.4
20260509164506 12 207 9.7 12.9 0.00 0.28 0.15 99 994.3
20260509161505 12 207 9.7 12.9 0.03 0.28 0.15 97 994.8
20260509160007 11 207 9.7 12.9 0.03 0.28 0.15 99 994.8
20260509154506 11 207 9.7 12.9 0.05 0.25 0.15 99 995.0
20260509153005 11 207 9.7 12.9 0.05 0.25 0.15 99 995.2
20260509151505 11 207 9.7 12.9 0.05 0.25 0.13 98 995.4
20260509150005 11 207 9.7 12.9 0.03 0.23 0.13 98 995.4
20260509143006 11 207 9.7 12.9 0.00 0.20 0.10 97 994.7
20260509140006 11 207 9.7 12.9 0.00 0.20 0.10 99 994.9
20260509134505 10 207 9.7 12.9 0.00 0.20 0.10 100 995.0
20260509133005 10 207 9.7 12.9 0.00 0.20 0.10 100 995.1
20260509124505 10 207 9.7 12.9 0.00 0.20 0.10 100 995.4
20260509123006 10 207 9.7 12.9 0.00 0.20 0.10 99 995.5
20260509121505 9 207 9.7 12.9 0.00 0.20 0.10 99 995.1
20260509120006 9 207 9.7 12.9 0.00 0.20 0.10 99 994.8
20260509114505 9 207 9.7 12.9 0.00 0.20 0.10 99 995.2
20260509113005 9 207 9.7 12.9 0.00 0.20 0.10 99 995.3
20260509111506 9 207 9.7 12.9 0.00 0.20 0.10 99 995.7